Weather Roundup
Issued by NWS

Home | Current Version | Previous Version | Text Only | Print | Product List | Glossary On
Versions: 1 2 3 4 5 6 7 8 9 10 11 12 13 14 15 16 17 18 19 20 21 22 23 24 25 26 27 28 29 30 31 32 33 34 35 36 37 38 39 40 41 42 43 44 45 46 47 48 49 50
000
NZUS93 KARX 301310
HRRWXR

CURRENT HOURLY OBSERVATIONS ACROSS
MUCH OF THE UPPER MISSISSIPPI VALLEY
NATIONAL WEATHER SERVICE LA CROSSE WI
800 AM CDT THU OCT 30 2014


...SOUTHEAST MINNESOTA...


CITY           SKY/WX    TMP DP  RH WIND       PRES   REMARKS
ROCHESTER      CLOUDY    37  33  85 S7        30.05S WCI  32
ROCHESTER/MAYO CLOUDY    38  32  77 SE7       30.04F WCI  33
WINONA         MOCLDY    37  36  93 CALM      30.07S
AUSTIN         CLOUDY    37  34  87 SE3       30.03S
ALBERT LEA     CLOUDY    39  36  87 SE3       30.03S
DODGE CENTER   CLOUDY    39  36  87 S5        30.03S
PRESTON        CLOUDY    35  32  89 S5        30.05S WCI  31
OWATONNA       CLOUDY    39  34  81 SE3       30.04R
FARIBAULT      CLOUDY    39  36  87 CALM      30.04R
$$

...ELSEWHERE IN MINNESOTA...


CITY           SKY/WX    TMP DP  RH WIND       PRES   REMARKS
MINNEAPOLIS    CLOUDY    40  33  76 SE3       30.04F
INTNL FALLS    CLOUDY    34  32  92 NW6       30.06S WCI  29
DULUTH         CLOUDY    36  32  85 NW5       30.03S WCI  32
RED WING       CLOUDY    39  36  87 CALM      30.04F
REDWOOD FALLS  CLOUDY    40  36  86 CALM      30.02R
MANKATO        CLOUDY    41  34  75 SE7       30.03R
WORTHINGTON    MOCLDY    39  34  81 CALM      30.00R
FAIRMONT       CLOUDY    41  34  75 SE5       30.01S
$$

...SOUTHWEST WISCONSIN...


CITY           SKY/WX    TMP DP  RH WIND       PRES   REMARKS
LA CROSSE      CLOUDY    38  34  85 SE6       30.07F WCI  33
PRAIRIE DU CHI CLOUDY    34  32  92 CALM      30.10S
BOSCOBEL       FOG       33  31  92 CALM      30.10F VSB 1/4
LONE ROCK      CLOUDY    37  31  78 CALM      30.10S
PLATTEVILLE    CLOUDY    36  33  89 CALM      30.11R
FORT MC COY    CLOUDY    32  32  99 CALM      30.09S
CAMP DOUGLAS   CLOUDY    32  32 100 E2        30.08S
VIROQUA        CLOUDY    37  33  87 S3        30.07S
WIS DELLS      CLOUDY    35  32  90 CALM      30.09S
$$

...ELSEWHERE IN WISCONSIN...


CITY           SKY/WX    TMP DP  RH WIND       PRES   REMARKS
MILWAUKEE      MOCLDY    37  32  82 CALM      30.10F
MADISON        CLOUDY    36  33  89 CALM      30.10S
GREEN BAY      CLOUDY    38  35  89 SW3       30.09R
EAU CLAIRE     CLOUDY    36  33  89 CALM      30.06S
BLACK RVR FLS  CLOUDY    31  31 100 CALM      30.07F
MEDFORD        CLOUDY    33  32  95 CALM      30.04S
WAUSAU         CLOUDY    34  32  92 E3        30.04F
WIS RAPIDS     MOCLDY    33  31  92 SW3       30.09S
MARSHFIELD     CLOUDY    33  31  92 SW3       30.06S
RICE LAKE      CLOUDY    34  33  94 CALM      30.07R
$$

...NORTHEAST IOWA...


CITY           SKY/WX    TMP DP  RH WIND       PRES   REMARKS
DECORAH        PTCLDY    34  32  93 SE3       30.06S
MASON CITY     CLOUDY    37  35  92 E3        30.04S
CHARLES CITY   CLOUDY    37  36  93 SE6       30.05S WCI  33
OELWEIN        CLOUDY    39  36  87 SE6       30.07S WCI  35
$$

...ELSEWHERE IN IOWA...


CITY           SKY/WX    TMP DP  RH WIND       PRES   REMARKS
DES MOINES     MOCLDY    44  35  70 SE12      30.02F
IOWA CITY      CLOUDY    36  34  92 SE3       30.10F
FORT DODGE     MOCLDY    39  36  87 CALM      30.01S
$$

...NORTHERN ILLINOIS...


CITY           SKY/WX    TMP DP  RH WIND       PRES   REMARKS
CHICAGO-OHARE  MOCLDY    34  31  88 CALM      30.13S
CHICAGO-MIDWAY MOCLDY    39  34  82 S3        30.14S
MOLINE         MOCLDY    34  31  88 E3        30.10F
ROCKFORD       CLOUDY    33  30  88 CALM      30.14R
PEORIA         MOCLDY    38  33  82 CALM      30.14F
$$

NOTE: "FAIR" INDICATES FEW OR NO CLOUDS BELOW 12,000 FEET WITH NO
SIGNIFICANT WEATHER AND/OR OBSTRUCTIONS TO VISIBILITY. WIND
SPEEDS ARE IN MILES-PER-HOUR.



USA.gov is the U.S. government's official web portal to all federal, state and local government web resources and services.